DateTime,Index
1990101600,0.0
1990101606,0.0
1990101612,0.0
1990101618,0.0
1990101700,0.0
1990101706,0.0
1990101712,1225.0
1990101718,1600.0
1990101800,2500.0
1990101806,3600.0
1990101812,4900.0
1990101818,6400.0
1990101900,8100.0
1990101906,10000.0
1990101912,11025.0
1990101918,13225.0
1990102000,15625.0
1990102006,16900.0
1990102012,18225.0
1990102018,16900.0
1990102100,15625.0
1990102106,13225.0
1990102112,11025.0
1990102118,10000.0
1990102200,9025.0
1990102206,8100.0
1990102212,7225.0
1990102218,6400.0
1990102300,5625.0
1990102306,4900.0
1990102312,4900.0
1990102318,4900.0
1990102400,4900.0
1990102406,4900.0
1990102412,4900.0
1990102418,5625.0
1990102500,7225.0
1990102506,8100.0
1990102512,10000.0
1990102518,11025.0
1990102600,12100.0
1990102606,13225.0
1990102612,13225.0
1990102618,13225.0
1990102700,13225.0
1990102706,13225.0
1990102712,13225.0
1990102718,12100.0
1990102800,10000.0
1990102806,10000.0
1990102812,8100.0
1990102818,7225.0
1990102900,6400.0
1990102906,4900.0
1990102912,4225.0
1990102918,3600.0
1990103000,3025.0
1990103006,2500.0
1990103012,2025.0
1990103018,1600.0
1990103100,1225.0
1990103106,1225.0
1990103112,0.0
1990103118,0.0
1990110100,0.0
1990110106,0.0
1990110112,0.0
